Time,TemperatureF,DewpointF,PressureIn,WindDirection,WindDirectionDegrees,WindSpeedMPH,WindSpeedGustMPH,Humidity,HourlyPrecipIn,Conditions,Clouds,dailyrainin,SoftwareType,DateUTC
2013-02-03 00:00:00,49.5,8.9,25.45,North,0,0.0,0.0,19,0.00,,---,0.00,VWS V14.00,2013-02-03 07:00:00,
2013-02-03 00:05:00,49.3,8.8,25.45,North,353,0.0,0.0,19,0.00,,---,0.00,VWS V14.00,2013-02-03 07:05:00,
2013-02-03 00:10:00,48.6,8.2,25.45,NNW,346,0.0,0.0,19,0.00,,---,0.00,VWS V14.00,2013-02-03 07:10:00,
2013-02-03 00:15:00,47.8,7.6,25.45,NNW,330,0.0,0.0,19,0.00,,---,0.00,VWS V14.00,2013-02-03 07:15:00,
2013-02-03 00:20:00,47.1,7.0,25.45,NW,305,0.0,0.0,19,0.00,,---,0.00,VWS V14.00,2013-02-03 07:20:00,
2013-02-03 00:25:00,46.8,6.7,25.45,WNW,293,0.0,0.0,19,0.00,,---,0.00,VWS V14.00,2013-02-03 07:25:00,
2013-02-03 00:30:00,46.6,6.5,25.45,West,280,0.0,0.0,19,0.00,,---,0.00,VWS V14.00,2013-02-03 07:30:00,
2013-02-03 00:35:00,46.9,6.8,25.45,West,268,0.0,0.0,19,0.00,,---,0.00,VWS V14.00,2013-02-03 07:35:00,
2013-02-03 00:40:00,47.1,7.0,25.45,West,268,0.0,0.0,19,0.00,,---,0.00,VWS V14.00,2013-02-03 07:40:00,
2013-02-03 00:45:00,46.9,6.8,25.45,West,267,0.0,0.0,19,0.00,,---,0.00,VWS V14.00,2013-02-03 07:45:00,
2013-02-03 00:50:00,46.8,6.7,25.45,West,267,0.0,0.0,19,0.00,,---,0.00,VWS V14.00,2013-02-03 07:50:00,
2013-02-03 00:55:00,46.6,6.5,25.45,West,267,0.0,0.0,19,0.00,,---,0.00,VWS V14.00,2013-02-03 07:55:00,
2013-02-03 01:00:00,46.4,6.4,25.45,West,267,0.0,0.0,19,0.00,,---,0.00,VWS V14.00,2013-02-03 08:00:00,
2013-02-03 01:05:00,46.0,7.2,25.45,West,267,0.0,0.0,20,0.00,,---,0.00,VWS V14.00,2013-02-03 08:05:00,
2013-02-03 01:10:00,46.0,7.2,25.45,West,267,0.0,0.0,20,0.00,,---,0.00,VWS V14.00,2013-02-03 08:10:00,
2013-02-03 01:15:00,46.6,6.5,25.45,West,267,0.0,0.0,19,0.00,,---,0.00,VWS V14.00,2013-02-03 08:15:00,
2013-02-03 01:20:00,46.4,6.4,25.45,West,267,0.0,0.0,19,0.00,,---,0.00,VWS V14.00,2013-02-03 08:20:00,
2013-02-03 01:25:00,46.0,7.2,25.45,West,267,0.0,0.0,20,0.00,,---,0.00,VWS V14.00,2013-02-03 08:25:00,
2013-02-03 01:30:00,45.9,7.1,25.45,West,267,4.5,4.5,20,0.00,,---,0.00,VWS V14.00,2013-02-03 08:30:00,
2013-02-03 01:35:00,45.5,6.8,25.45,West,267,4.9,5.4,20,0.00,,---,0.00,VWS V14.00,2013-02-03 08:35:00,
2013-02-03 01:40:00,45.5,6.8,25.45,West,265,5.4,5.8,20,0.00,,---,0.00,VWS V14.00,2013-02-03 08:40:00,
2013-02-03 01:45:00,45.5,6.8,25.45,West,262,4.9,5.4,20,0.00,,---,0.00,VWS V14.00,2013-02-03 08:45:00,
2013-02-03 01:50:00,45.5,6.8,25.45,West,262,4.9,4.9,20,0.00,,---,0.00,VWS V14.00,2013-02-03 08:50:00,
2013-02-03 01:55:00,45.5,6.8,25.45,West,262,4.0,4.0,20,0.00,,---,0.00,VWS V14.00,2013-02-03 08:55:00,
2013-02-03 02:01:00,46.0,7.2,25.45,West,264,4.9,4.9,20,0.00,,---,0.00,VWS V14.00,2013-02-03 09:01:00,
2013-02-03 02:06:00,46.8,6.7,25.45,West,265,3.6,4.0,19,0.00,,---,0.00,VWS V14.00,2013-02-03 09:06:00,
2013-02-03 02:11:00,46.9,6.8,25.45,West,265,3.6,3.6,19,0.00,,---,0.00,VWS V14.00,2013-02-03 09:11:00,
2013-02-03 02:16:00,46.8,6.7,25.45,West,265,2.7,3.1,19,0.00,,---,0.00,VWS V14.00,2013-02-03 09:16:00,
2013-02-03 02:21:00,46.8,6.7,25.45,West,265,3.1,4.0,19,0.00,,---,0.00,VWS V14.00,2013-02-03 09:21:00,
2013-02-03 02:26:00,46.8,6.7,25.43,West,265,4.0,4.0,19,0.00,,---,0.00,VWS V14.00,2013-02-03 09:26:00,
2013-02-03 02:31:00,46.6,6.5,25.43,West,265,3.1,3.1,19,0.00,,---,0.00,VWS V14.00,2013-02-03 09:31:00,
2013-02-03 02:36:00,46.0,7.2,25.43,West,265,3.6,3.6,20,0.00,,---,0.00,VWS V14.00,2013-02-03 09:36:00,
2013-02-03 02:41:00,45.7,6.9,25.43,West,265,3.1,3.1,20,0.00,,---,0.00,VWS V14.00,2013-02-03 09:41:00,
2013-02-03 02:46:00,45.5,6.8,25.43,West,263,2.7,3.1,20,0.00,,---,0.00,VWS V14.00,2013-02-03 09:46:00,
2013-02-03 02:51:00,45.7,6.9,25.43,West,263,0.0,0.0,20,0.00,,---,0.00,VWS V14.00,2013-02-03 09:51:00,
2013-02-03 02:56:00,46.2,7.4,25.43,West,263,0.0,0.0,20,0.00,,---,0.00,VWS V14.00,2013-02-03 09:56:00,
2013-02-03 03:01:00,46.9,6.8,25.43,West,263,0.0,0.0,19,0.00,,---,0.00,VWS V14.00,2013-02-03 10:01:00,
2013-02-03 03:06:00,47.1,7.0,25.43,West,263,0.0,0.0,19,0.00,,---,0.00,VWS V14.00,2013-02-03 10:06:00,
2013-02-03 03:11:00,47.3,7.1,25.43,West,263,2.2,2.2,19,0.00,,---,0.00,VWS V14.00,2013-02-03 10:11:00,
2013-02-03 03:16:00,47.7,7.4,25.43,West,263,0.0,0.0,19,0.00,,---,0.00,VWS V14.00,2013-02-03 10:16:00,
2013-02-03 03:21:00,47.7,7.4,25.43,West,263,0.0,0.0,19,0.00,,---,0.00,VWS V14.00,2013-02-03 10:21:00,
2013-02-03 03:26:00,47.8,7.6,25.43,West,279,0.0,0.0,19,0.00,,---,0.00,VWS V14.00,2013-02-03 10:26:00,
2013-02-03 03:31:00,47.8,7.6,25.43,WNW,286,0.0,0.0,19,0.00,,---,0.00,VWS V14.00,2013-02-03 10:31:00,
2013-02-03 03:36:00,47.7,7.4,25.43,WNW,284,0.0,0.0,19,0.00,,---,0.00,VWS V14.00,2013-02-03 10:36:00,
2013-02-03 03:41:00,47.3,7.1,25.43,WNW,284,0.0,0.0,19,0.00,,---,0.00,VWS V14.00,2013-02-03 10:41:00,
2013-02-03 03:46:00,46.9,6.8,25.43,WNW,284,0.0,0.0,19,0.00,,---,0.00,VWS V14.00,2013-02-03 10:46:00,
2013-02-03 03:51:00,46.4,6.4,25.43,WNW,284,0.0,0.0,19,0.00,,---,0.00,VWS V14.00,2013-02-03 10:51:00,
2013-02-03 03:56:00,46.2,7.4,25.43,WNW,283,0.0,0.0,20,0.00,,---,0.00,VWS V14.00,2013-02-03 10:56:00,
2013-02-03 04:01:00,45.7,6.9,25.43,WNW,283,0.0,0.0,20,0.00,,---,0.00,VWS V14.00,2013-02-03 11:01:00,
2013-02-03 04:06:00,45.3,6.6,25.43,West,264,3.1,3.6,20,0.00,,---,0.00,VWS V14.00,2013-02-03 11:06:00,
2013-02-03 04:11:00,45.1,6.5,25.43,West,262,2.2,2.7,20,0.00,,---,0.00,VWS V14.00,2013-02-03 11:11:00,
2013-02-03 04:16:00,45.1,6.5,25.43,West,262,3.6,3.6,20,0.00,,---,0.00,VWS V14.00,2013-02-03 11:16:00,
2013-02-03 04:21:00,44.8,6.2,25.43,West,263,3.1,3.6,20,0.00,,---,0.00,VWS V14.00,2013-02-03 11:21:00,
2013-02-03 04:26:00,44.8,6.2,25.40,West,263,0.0,0.0,20,0.00,,---,0.00,VWS V14.00,2013-02-03 11:26:00,
2013-02-03 04:31:00,44.8,6.2,25.40,West,263,0.0,0.0,20,0.00,,---,0.00,VWS V14.00,2013-02-03 11:31:00,
2013-02-03 04:36:00,45.1,6.5,25.40,West,263,0.0,0.0,20,0.00,,---,0.00,VWS V14.00,2013-02-03 11:36:00,
2013-02-03 04:41:00,45.3,6.6,25.40,West,263,0.0,0.0,20,0.00,,---,0.00,VWS V14.00,2013-02-03 11:41:00,
2013-02-03 04:46:00,45.9,7.1,25.40,West,263,0.0,0.0,20,0.00,,---,0.00,VWS V14.00,2013-02-03 11:46:00,
2013-02-03 04:51:00,45.9,7.1,25.40,West,263,0.0,0.0,20,0.00,,---,0.00,VWS V14.00,2013-02-03 11:51:00,
2013-02-03 04:56:00,44.8,6.2,25.40,West,263,0.0,0.0,20,0.00,,---,0.00,VWS V14.00,2013-02-03 11:56:00,
2013-02-03 05:01:00,43.9,5.4,25.40,West,263,0.0,0.0,20,0.00,,---,0.00,VWS V14.00,2013-02-03 12:01:00,
2013-02-03 05:06:00,43.3,5.0,25.40,West,263,0.0,0.0,20,0.00,,---,0.00,VWS V14.00,2013-02-03 12:06:00,
2013-02-03 05:11:00,43.3,5.0,25.40,West,277,0.0,0.0,20,0.00,,---,0.00,VWS V14.00,2013-02-03 12:11:00,
2013-02-03 05:16:00,44.4,5.9,25.40,NW,322,0.0,0.0,20,0.00,,---,0.00,VWS V14.00,2013-02-03 12:16:00,
2013-02-03 05:22:00,45.1,6.5,25.40,NW,316,0.0,0.0,20,0.00,,---,0.00,VWS V14.00,2013-02-03 12:22:00,
2013-02-03 05:27:00,45.1,6.5,25.40,NW,313,0.0,0.0,20,0.00,,---,0.00,VWS V14.00,2013-02-03 12:27:00,
2013-02-03 05:32:00,45.0,6.3,25.40,West,281,0.0,0.0,20,0.00,,---,0.00,VWS V14.00,2013-02-03 12:32:00,
2013-02-03 05:37:00,44.4,5.9,25.40,NW,305,4.9,5.4,20,0.00,,---,0.00,VWS V14.00,2013-02-03 12:37:00,
2013-02-03 05:42:00,44.6,6.0,25.40,WNW,292,4.9,4.9,20,0.00,,---,0.00,VWS V14.00,2013-02-03 12:42:00,
2013-02-03 05:47:00,45.0,6.3,25.40,West,276,0.0,0.0,20,0.00,,---,0.00,VWS V14.00,2013-02-03 12:47:00,
2013-02-03 05:52:00,44.2,5.7,25.40,West,265,0.0,0.0,20,0.00,,---,0.00,VWS V14.00,2013-02-03 12:52:00,
2013-02-03 05:57:00,43.5,5.1,25.40,West,265,0.0,0.0,20,0.00,,---,0.00,VWS V14.00,2013-02-03 12:57:00,
2013-02-03 06:02:00,43.3,5.0,25.40,West,265,2.7,2.7,20,0.00,,---,0.00,VWS V14.00,2013-02-03 13:02:00,
2013-02-03 06:07:00,43.3,5.0,25.40,West,265,3.6,3.6,20,0.00,,---,0.00,VWS V14.00,2013-02-03 13:07:00,
2013-02-03 06:12:00,43.5,5.1,25.40,West,265,3.1,3.1,20,0.00,,---,0.00,VWS V14.00,2013-02-03 13:12:00,
2013-02-03 06:17:00,43.5,5.1,25.40,West,265,3.6,4.0,20,0.00,,---,0.00,VWS V14.00,2013-02-03 13:17:00,
2013-02-03 06:22:00,43.9,5.4,25.40,WNW,300,2.2,4.0,20,0.00,,---,0.00,VWS V14.00,2013-02-03 13:22:00,
2013-02-03 06:27:00,44.6,6.0,25.40,WNW,299,0.0,0.0,20,0.00,,---,0.00,VWS V14.00,2013-02-03 13:27:00,
2013-02-03 06:32:00,44.8,6.2,25.40,WNW,299,0.0,0.0,20,0.00,,---,0.00,VWS V14.00,2013-02-03 13:32:00,
2013-02-03 06:37:00,44.6,6.0,25.40,West,280,0.0,0.0,20,0.00,,---,0.00,VWS V14.00,2013-02-03 13:37:00,
2013-02-03 06:42:00,44.2,5.7,25.40,West,279,0.0,0.0,20,0.00,,---,0.00,VWS V14.00,2013-02-03 13:42:00,
2013-02-03 06:47:00,44.6,6.0,25.40,West,279,0.0,0.0,20,0.00,,---,0.00,VWS V14.00,2013-02-03 13:47:00,
2013-02-03 06:52:00,45.3,6.6,25.40,WNW,289,0.0,0.0,20,0.00,,---,0.00,VWS V14.00,2013-02-03 13:52:00,
2013-02-03 06:57:00,45.7,6.9,25.40,WNW,289,0.0,0.0,20,0.00,,---,0.00,VWS V14.00,2013-02-03 13:57:00,
2013-02-03 07:02:00,45.5,6.8,25.40,WNW,290,0.0,0.0,20,0.00,,---,0.00,VWS V14.00,2013-02-03 14:02:00,
2013-02-03 07:07:00,45.5,6.8,25.40,NW,307,0.0,0.0,20,0.00,,---,0.00,VWS V14.00,2013-02-03 14:07:00,
2013-02-03 07:12:00,45.9,7.1,25.40,NW,314,5.4,5.4,20,0.00,,---,0.00,VWS V14.00,2013-02-03 14:12:00,
2013-02-03 07:17:00,46.0,7.2,25.40,NW,307,4.0,4.0,20,0.00,,---,0.00,VWS V14.00,2013-02-03 14:17:00,
2013-02-03 07:22:00,45.9,7.1,25.40,West,270,3.1,3.6,20,0.00,,---,0.00,VWS V14.00,2013-02-03 14:22:00,
2013-02-03 07:27:00,45.3,6.6,25.40,West,270,3.1,4.9,20,0.00,,---,0.00,VWS V14.00,2013-02-03 14:27:00,
2013-02-03 07:32:00,45.0,6.3,25.40,West,272,3.1,4.0,20,0.00,,---,0.00,VWS V14.00,2013-02-03 14:32:00,
2013-02-03 07:37:00,45.5,6.8,25.40,West,273,2.7,2.7,20,0.00,,---,0.00,VWS V14.00,2013-02-03 14:37:00,
2013-02-03 07:42:00,46.0,7.2,25.40,West,273,0.0,0.0,20,0.00,,---,0.00,VWS V14.00,2013-02-03 14:42:00,
2013-02-03 07:47:00,46.2,7.4,25.40,West,273,0.0,0.0,20,0.00,,---,0.00,VWS V14.00,2013-02-03 14:47:00,
2013-02-03 07:52:00,46.2,7.4,25.40,West,273,0.0,0.0,20,0.00,,---,0.00,VWS V14.00,2013-02-03 14:52:00,
2013-02-03 07:57:00,46.2,7.4,25.40,West,273,0.0,0.0,20,0.00,,---,0.00,VWS V14.00,2013-02-03 14:57:00,
2013-02-03 08:02:00,46.4,6.4,25.40,West,273,0.0,0.0,19,0.00,,---,0.00,VWS V14.00,2013-02-03 15:02:00,
2013-02-03 08:07:00,46.6,6.5,25.40,West,273,0.0,0.0,19,0.00,,---,0.00,VWS V14.00,2013-02-03 15:07:00,
2013-02-03 08:12:00,46.9,6.8,25.40,West,273,0.0,0.0,19,0.00,,---,0.00,VWS V14.00,2013-02-03 15:12:00,
2013-02-03 08:17:00,47.3,7.1,25.40,West,273,0.0,0.0,19,0.00,,---,0.00,VWS V14.00,2013-02-03 15:17:00,
2013-02-03 08:22:00,48.0,7.7,25.40,West,273,0.0,0.0,19,0.00,,---,0.00,VWS V14.00,2013-02-03 15:22:00,
2013-02-03 08:27:00,48.7,8.3,25.40,West,273,0.0,0.0,19,0.00,,---,0.00,VWS V14.00,2013-02-03 15:27:00,
2013-02-03 08:32:00,49.1,8.6,25.40,West,273,0.0,0.0,19,0.00,,---,0.00,VWS V14.00,2013-02-03 15:32:00,
2013-02-03 08:37:00,49.6,9.1,25.40,NNW,328,0.0,4.0,19,0.00,,---,0.00,VWS V14.00,2013-02-03 15:37:00,
2013-02-03 08:42:00,49.8,9.2,25.40,NNW,337,5.4,5.8,19,0.00,,---,0.00,VWS V14.00,2013-02-03 15:42:00,
2013-02-03 08:47:00,50.0,9.4,25.40,NW,321,0.0,0.0,19,0.00,,---,0.00,VWS V14.00,2013-02-03 15:47:00,
2013-02-03 08:52:00,50.2,9.5,25.40,NW,325,4.0,4.5,19,0.00,,---,0.00,VWS V14.00,2013-02-03 15:52:00,
2013-02-03 08:57:00,50.4,9.7,25.40,NW,321,0.0,0.0,19,0.00,,---,0.00,VWS V14.00,2013-02-03 15:57:00,
2013-02-03 09:02:00,50.5,9.8,25.40,NNW,333,0.0,0.0,19,0.00,,---,0.00,VWS V14.00,2013-02-03 16:02:00,
2013-02-03 09:07:00,50.7,10.0,25.40,NNW,339,4.0,4.0,19,0.00,,---,0.00,VWS V14.00,2013-02-03 16:07:00,
2013-02-03 09:13:00,50.7,10.0,25.40,NNW,339,0.0,0.0,19,0.00,,---,0.00,VWS V14.00,2013-02-03 16:13:00,
2013-02-03 09:18:00,50.7,10.0,25.40,NW,317,4.0,4.9,19,0.00,,---,0.00,VWS V14.00,2013-02-03 16:18:00,
2013-02-03 09:23:00,50.7,10.0,25.40,NW,318,3.6,3.6,19,0.00,,---,0.00,VWS V14.00,2013-02-03 16:23:00,
2013-02-03 09:28:00,50.9,10.1,25.40,NW,325,4.0,4.0,19,0.00,,---,0.00,VWS V14.00,2013-02-03 16:28:00,
2013-02-03 09:33:00,51.1,10.3,25.40,NNW,334,4.9,4.9,19,0.00,,---,0.00,VWS V14.00,2013-02-03 16:33:00,
2013-02-03 09:38:00,51.3,10.4,25.40,NNW,329,5.4,5.4,19,0.00,,---,0.00,VWS V14.00,2013-02-03 16:38:00,
2013-02-03 09:43:00,51.3,10.4,25.40,NW,326,5.4,5.8,19,0.00,,---,0.00,VWS V14.00,2013-02-03 16:43:00,
2013-02-03 09:48:00,51.3,10.4,25.40,NNW,330,0.0,0.0,19,0.00,,---,0.00,VWS V14.00,2013-02-03 16:48:00,
2013-02-03 09:53:00,51.3,10.4,25.40,NNW,329,3.6,3.6,19,0.00,,---,0.00,VWS V14.00,2013-02-03 16:53:00,
2013-02-03 09:58:00,51.4,10.6,25.40,NNW,338,5.8,5.8,19,0.00,,---,0.00,VWS V14.00,2013-02-03 16:58:00,
2013-02-03 10:03:00,51.4,10.6,25.40,NNW,339,5.4,5.4,19,0.00,,---,0.00,VWS V14.00,2013-02-03 17:03:00,
2013-02-03 10:08:00,51.6,10.7,25.40,NNW,332,4.0,4.0,19,0.00,,---,0.00,VWS V14.00,2013-02-03 17:08:00,
2013-02-03 10:13:00,52.0,9.8,25.40,NNW,335,5.8,6.3,18,0.00,,---,0.00,VWS V14.00,2013-02-03 17:13:00,
2013-02-03 10:18:00,52.3,10.1,25.40,NNW,339,3.1,5.4,18,0.00,,---,0.00,VWS V14.00,2013-02-03 17:18:00,
2013-02-03 10:23:00,52.9,10.6,25.40,NNW,345,6.3,6.3,18,0.00,,---,0.00,VWS V14.00,2013-02-03 17:23:00,
2013-02-03 10:28:00,53.2,10.9,25.40,NNW,337,3.1,3.6,18,0.00,,---,0.00,VWS V14.00,2013-02-03 17:28:00,
2013-02-03 10:33:00,53.8,11.3,25.40,NNW,330,2.7,2.7,18,0.00,,---,0.00,VWS V14.00,2013-02-03 17:33:00,
2013-02-03 10:38:00,54.1,11.6,25.40,NNW,334,2.7,2.7,18,0.00,,---,0.00,VWS V14.00,2013-02-03 17:38:00,
2013-02-03 10:43:00,54.3,11.7,25.40,North,9,3.6,3.6,18,0.00,,---,0.00,VWS V14.00,2013-02-03 17:43:00,
2013-02-03 10:48:00,54.5,11.9,25.40,North,357,5.4,5.4,18,0.00,,---,0.00,VWS V14.00,2013-02-03 17:48:00,
2013-02-03 10:53:00,55.0,12.3,25.40,NNW,344,4.0,4.0,18,0.00,,---,0.00,VWS V14.00,2013-02-03 17:53:00,
2013-02-03 10:58:00,55.6,11.5,25.40,North,0,3.6,3.6,17,0.00,,---,0.00,VWS V14.00,2013-02-03 17:58:00,
2013-02-03 11:03:00,56.1,11.9,25.40,North,349,0.0,0.0,17,0.00,,---,0.00,VWS V14.00,2013-02-03 18:03:00,
2013-02-03 11:08:00,56.7,12.4,25.40,NNW,341,5.4,5.8,17,0.00,,---,0.00,VWS V14.00,2013-02-03 18:08:00,
2013-02-03 11:13:00,56.8,12.5,25.40,NNW,333,5.4,5.4,17,0.00,,---,0.00,VWS V14.00,2013-02-03 18:13:00,
2013-02-03 11:18:00,57.0,12.7,25.40,North,349,5.4,5.4,17,0.00,,---,0.00,VWS V14.00,2013-02-03 18:18:00,
2013-02-03 11:23:00,57.0,12.7,25.40,NNW,332,0.0,3.6,17,0.00,,---,0.00,VWS V14.00,2013-02-03 18:23:00,
2013-02-03 11:28:00,57.2,12.8,25.40,NNW,342,4.0,4.0,17,0.00,,---,0.00,VWS V14.00,2013-02-03 18:28:00,
2013-02-03 11:33:00,57.4,12.9,25.40,NNW,338,4.0,4.9,17,0.00,,---,0.00,VWS V14.00,2013-02-03 18:33:00,
2013-02-03 11:38:00,57.7,13.2,25.40,NNE,15,3.6,3.6,17,0.00,,---,0.00,VWS V14.00,2013-02-03 18:38:00,
2013-02-03 11:43:00,58.1,13.5,25.37,North,349,4.0,4.0,17,0.00,,---,0.00,VWS V14.00,2013-02-03 18:43:00,
2013-02-03 11:48:00,58.5,13.8,25.37,NNW,346,2.7,4.0,17,0.00,,---,0.00,VWS V14.00,2013-02-03 18:48:00,
2013-02-03 11:53:00,58.5,13.8,25.37,NNE,24,5.8,5.8,17,0.00,,---,0.00,VWS V14.00,2013-02-03 18:53:00,
2013-02-03 11:58:00,58.5,13.8,25.37,NNE,23,0.0,0.0,17,0.00,,---,0.00,VWS V14.00,2013-02-03 18:58:00,
2013-02-03 12:03:00,58.6,14.0,25.37,NNW,339,2.7,3.6,17,0.00,,---,0.00,VWS V14.00,2013-02-03 19:03:00,
2013-02-03 12:08:00,58.8,14.1,25.37,North,0,0.0,0.0,17,0.00,,---,0.00,VWS V14.00,2013-02-03 19:08:00,
2013-02-03 12:13:00,59.0,14.3,25.37,North,11,5.8,5.8,17,0.00,,---,0.00,VWS V14.00,2013-02-03 19:13:00,
2013-02-03 12:18:00,59.2,14.4,25.37,NNW,344,0.0,0.0,17,0.00,,---,0.00,VWS V14.00,2013-02-03 19:18:00,
2013-02-03 12:23:00,59.4,14.6,25.37,NNW,344,0.0,0.0,17,0.00,,---,0.00,VWS V14.00,2013-02-03 19:23:00,
2013-02-03 12:28:00,59.7,14.9,25.37,NNW,345,3.1,3.1,17,0.00,,---,0.00,VWS V14.00,2013-02-03 19:28:00,
2013-02-03 12:33:00,60.1,15.1,25.37,NNE,31,3.6,3.6,17,0.00,,---,0.00,VWS V14.00,2013-02-03 19:33:00,
2013-02-03 12:38:00,60.4,15.4,25.37,North,1,3.1,4.9,17,0.00,,---,0.00,VWS V14.00,2013-02-03 19:38:00,
2013-02-03 12:43:00,60.8,14.4,25.34,NNW,332,2.7,2.7,16,0.00,,---,0.00,VWS V14.00,2013-02-03 19:43:00,
2013-02-03 12:48:00,61.0,18.5,25.34,North,5,0.0,3.6,19,0.00,,---,0.00,VWS V14.00,2013-02-03 19:48:00,
2013-02-03 12:53:00,61.2,18.6,25.34,NNE,21,3.6,3.6,19,0.00,,---,0.00,VWS V14.00,2013-02-03 19:53:00,
2013-02-03 12:58:00,61.2,18.6,25.34,NNW,332,6.3,6.3,19,0.00,,---,0.00,VWS V14.00,2013-02-03 19:58:00,
2013-02-03 13:03:00,61.0,18.5,25.34,NNW,334,4.0,5.4,19,0.00,,---,0.00,VWS V14.00,2013-02-03 20:03:00,
2013-02-03 13:08:00,61.0,18.5,25.34,North,353,0.0,2.7,19,0.00,,---,0.00,VWS V14.00,2013-02-03 20:08:00,
2013-02-03 13:13:00,61.0,18.5,25.34,North,0,0.0,0.0,19,0.00,,---,0.00,VWS V14.00,2013-02-03 20:13:00,
2013-02-03 13:18:00,61.2,18.6,25.34,North,353,0.0,0.0,19,0.00,,---,0.00,VWS V14.00,2013-02-03 20:18:00,
2013-02-03 13:23:00,61.2,18.6,25.34,NNW,346,3.6,4.0,19,0.00,,---,0.00,VWS V14.00,2013-02-03 20:23:00,
2013-02-03 13:29:00,61.0,14.5,25.34,NE,48,3.1,4.9,16,0.00,,---,0.00,VWS V14.00,2013-02-03 20:29:00,
2013-02-03 13:34:00,60.8,14.4,25.34,NNW,344,0.0,0.0,16,0.00,,---,0.00,VWS V14.00,2013-02-03 20:34:00,
2013-02-03 13:39:00,60.8,14.4,25.34,North,5,0.0,3.1,16,0.00,,---,0.00,VWS V14.00,2013-02-03 20:39:00,
2013-02-03 13:44:00,60.6,15.6,25.34,NNE,14,0.0,3.1,17,0.00,,---,0.00,VWS V14.00,2013-02-03 20:44:00,
2013-02-03 13:49:00,60.4,15.4,25.34,NNE,17,0.0,0.0,17,0.00,,---,0.00,VWS V14.00,2013-02-03 20:49:00,
2013-02-03 13:54:00,60.3,15.3,25.31,North,353,0.0,4.0,17,0.00,,---,0.00,VWS V14.00,2013-02-03 20:54:00,
2013-02-03 13:59:00,60.1,15.1,25.31,NNW,334,0.0,0.0,17,0.00,,---,0.00,VWS V14.00,2013-02-03 20:59:00,
2013-02-03 14:04:00,59.7,14.9,25.31,North,353,4.0,5.4,17,0.00,,---,0.00,VWS V14.00,2013-02-03 21:04:00,
2013-02-03 14:09:00,59.7,14.9,25.31,NNW,330,4.9,4.9,17,0.00,,---,0.00,VWS V14.00,2013-02-03 21:09:00,
2013-02-03 14:14:00,59.7,14.9,25.31,NNW,340,2.7,2.7,17,0.00,,---,0.00,VWS V14.00,2013-02-03 21:14:00,
2013-02-03 14:19:00,59.5,14.7,25.31,NNW,340,0.0,0.0,17,0.00,,---,0.00,VWS V14.00,2013-02-03 21:19:00,
2013-02-03 14:24:00,59.4,14.6,25.31,NNW,340,0.0,0.0,17,0.00,,---,0.00,VWS V14.00,2013-02-03 21:24:00,
2013-02-03 14:29:00,59.4,14.6,25.31,NNW,340,0.0,0.0,17,0.00,,---,0.00,VWS V14.00,2013-02-03 21:29:00,
2013-02-03 14:34:00,59.2,14.4,25.31,NNW,340,4.0,4.0,17,0.00,,---,0.00,VWS V14.00,2013-02-03 21:34:00,
2013-02-03 14:39:00,59.2,14.4,25.31,NNW,339,0.0,0.0,17,0.00,,---,0.00,VWS V14.00,2013-02-03 21:39:00,
2013-02-03 14:44:00,59.0,14.3,25.31,North,357,0.0,0.0,17,0.00,,---,0.00,VWS V14.00,2013-02-03 21:44:00,
2013-02-03 14:49:00,59.0,14.3,25.31,NNW,334,4.5,5.4,17,0.00,,---,0.00,VWS V14.00,2013-02-03 21:49:00,
2013-02-03 14:54:00,59.0,14.3,25.31,North,8,0.0,0.0,17,0.00,,---,0.00,VWS V14.00,2013-02-03 21:54:00,
2013-02-03 14:59:00,59.0,14.3,25.31,North,5,0.0,0.0,17,0.00,,---,0.00,VWS V14.00,2013-02-03 21:59:00,
2013-02-03 15:04:00,59.0,14.3,25.31,North,7,0.0,0.0,17,0.00,,---,0.00,VWS V14.00,2013-02-03 22:04:00,
2013-02-03 15:09:00,59.0,14.3,25.31,East,89,3.6,4.9,17,0.00,,---,0.00,VWS V14.00,2013-02-03 22:09:00,
2013-02-03 15:14:00,59.0,14.3,25.31,East,95,0.0,0.0,17,0.00,,---,0.00,VWS V14.00,2013-02-03 22:14:00,
2013-02-03 15:19:00,59.0,14.3,25.31,East,89,0.0,0.0,17,0.00,,---,0.00,VWS V14.00,2013-02-03 22:19:00,
2013-02-03 15:24:00,59.0,14.3,25.31,NE,56,2.7,3.6,17,0.00,,---,0.00,VWS V14.00,2013-02-03 22:24:00,
2013-02-03 15:29:00,59.2,14.4,25.31,ENE,58,0.0,0.0,17,0.00,,---,0.00,VWS V14.00,2013-02-03 22:29:00,
2013-02-03 15:34:00,59.2,14.4,25.31,ENE,58,0.0,0.0,17,0.00,,---,0.00,VWS V14.00,2013-02-03 22:34:00,
2013-02-03 15:39:00,59.4,14.6,25.31,ENE,58,0.0,0.0,17,0.00,,---,0.00,VWS V14.00,2013-02-03 22:39:00,
2013-02-03 15:44:00,59.5,14.7,25.31,East,88,0.0,0.0,17,0.00,,---,0.00,VWS V14.00,2013-02-03 22:44:00,
2013-02-03 15:49:00,59.7,14.9,25.31,East,84,0.0,0.0,17,0.00,,---,0.00,VWS V14.00,2013-02-03 22:49:00,
2013-02-03 15:54:00,59.9,15.0,25.31,NNE,19,0.0,0.0,17,0.00,,---,0.00,VWS V14.00,2013-02-03 22:54:00,
2013-02-03 15:59:00,59.9,15.0,25.31,NW,310,5.8,7.6,17,0.00,,---,0.00,VWS V14.00,2013-02-03 22:59:00,
2013-02-03 16:04:00,60.1,15.1,25.31,NW,307,0.0,0.0,17,0.00,,---,0.00,VWS V14.00,2013-02-03 23:04:00,
2013-02-03 16:09:00,60.3,15.3,25.31,North,1,0.0,0.0,17,0.00,,---,0.00,VWS V14.00,2013-02-03 23:09:00,
2013-02-03 16:14:00,60.3,15.3,25.31,ESE,102,0.0,0.0,17,0.00,,---,0.00,VWS V14.00,2013-02-03 23:14:00,
2013-02-03 16:19:00,60.4,15.4,25.31,ESE,112,3.6,3.6,17,0.00,,---,0.00,VWS V14.00,2013-02-03 23:19:00,
2013-02-03 16:24:00,60.6,15.6,25.31,SSW,197,4.9,6.3,17,0.00,,---,0.00,VWS V14.00,2013-02-03 23:24:00,
2013-02-03 16:29:00,60.3,17.9,25.31,SSE,167,8.3,8.7,19,0.00,,---,0.00,VWS V14.00,2013-02-03 23:29:00,
2013-02-03 16:34:00,59.5,17.3,25.31,SSE,164,3.1,5.4,19,0.00,,---,0.00,VWS V14.00,2013-02-03 23:34:00,
2013-02-03 16:39:00,59.2,17.0,25.31,SSE,167,5.8,5.8,19,0.00,,---,0.00,VWS V14.00,2013-02-03 23:39:00,
2013-02-03 16:44:00,59.0,16.8,25.31,SSE,151,5.8,6.3,19,0.00,,---,0.00,VWS V14.00,2013-02-03 23:44:00,
2013-02-03 16:49:00,58.8,16.7,25.31,South,191,6.3,6.3,19,0.00,,---,0.00,VWS V14.00,2013-02-03 23:49:00,
2013-02-03 16:54:00,58.5,16.4,25.31,SW,232,6.3,8.3,19,0.00,,---,0.00,VWS V14.00,2013-02-03 23:54:00,
2013-02-03 16:59:00,58.1,16.1,25.31,South,179,5.8,5.8,19,0.00,,---,0.00,VWS V14.00,2013-02-03 23:59:00,
2013-02-03 17:04:00,57.9,15.9,25.31,SSW,208,5.4,5.8,19,0.00,,---,0.00,VWS V14.00,2013-02-04 00:04:00,
2013-02-03 17:10:00,57.7,15.8,25.31,SSE,165,3.1,4.0,19,0.00,,---,0.00,VWS V14.00,2013-02-04 00:10:00,
2013-02-03 17:15:00,57.6,15.6,25.31,SSE,166,0.0,2.7,19,0.00,,---,0.00,VWS V14.00,2013-02-04 00:15:00,
2013-02-03 17:20:00,57.4,15.5,25.31,South,169,0.0,0.0,19,0.00,,---,0.00,VWS V14.00,2013-02-04 00:20:00,
2013-02-03 17:25:00,57.2,15.3,25.31,South,171,0.0,3.1,19,0.00,,---,0.00,VWS V14.00,2013-02-04 00:25:00,
2013-02-03 17:30:00,57.0,16.4,25.31,SSE,165,3.1,3.6,20,0.00,,---,0.00,VWS V14.00,2013-02-04 00:30:00,
2013-02-03 17:35:00,56.8,16.2,25.31,South,171,2.7,3.1,20,0.00,,---,0.00,VWS V14.00,2013-02-04 00:35:00,
2013-02-03 17:40:00,56.7,16.1,25.31,South,170,3.6,4.0,20,0.00,,---,0.00,VWS V14.00,2013-02-04 00:40:00,
2013-02-03 17:45:00,56.3,15.8,25.31,South,170,0.0,0.0,20,0.00,,---,0.00,VWS V14.00,2013-02-04 00:45:00,
2013-02-03 17:50:00,55.9,15.5,25.31,South,170,0.0,0.0,20,0.00,,---,0.00,VWS V14.00,2013-02-04 00:50:00,
2013-02-03 17:55:00,55.4,15.0,25.31,South,170,0.0,0.0,20,0.00,,---,0.00,VWS V14.00,2013-02-04 00:55:00,
2013-02-03 18:00:00,54.5,14.3,25.31,SW,232,0.0,0.0,20,0.00,,---,0.00,VWS V14.00,2013-02-04 01:00:00,
2013-02-03 18:05:00,53.4,14.5,25.31,SW,232,3.1,3.6,21,0.00,,---,0.00,VWS V14.00,2013-02-04 01:05:00,
2013-02-03 18:10:00,52.3,13.6,25.31,West,278,3.1,3.1,21,0.00,,---,0.00,VWS V14.00,2013-02-04 01:10:00,
2013-02-03 18:15:00,51.3,12.7,25.31,West,278,2.7,2.7,21,0.00,,---,0.00,VWS V14.00,2013-02-04 01:15:00,
2013-02-03 18:20:00,50.5,12.1,25.31,West,273,4.9,5.4,21,0.00,,---,0.00,VWS V14.00,2013-02-04 01:20:00,
2013-02-03 18:25:00,50.4,11.9,25.31,West,272,0.0,0.0,21,0.00,,---,0.00,VWS V14.00,2013-02-04 01:25:00,
2013-02-03 18:30:00,49.8,11.5,25.31,West,259,2.7,3.1,21,0.00,,---,0.00,VWS V14.00,2013-02-04 01:30:00,
2013-02-03 18:35:00,49.3,11.0,25.31,West,259,0.0,0.0,21,0.00,,---,0.00,VWS V14.00,2013-02-04 01:35:00,
2013-02-03 18:40:00,49.3,14.0,25.31,WSW,256,4.0,4.9,24,0.00,,---,0.00,VWS V14.00,2013-02-04 01:40:00,
2013-02-03 18:45:00,49.8,14.5,25.31,WSW,256,4.0,4.0,24,0.00,,---,0.00,VWS V14.00,2013-02-04 01:45:00,
2013-02-03 18:50:00,49.5,11.2,25.31,WSW,256,0.0,0.0,21,0.00,,---,0.00,VWS V14.00,2013-02-04 01:50:00,
2013-02-03 18:55:00,48.6,13.4,25.31,WSW,256,0.0,0.0,24,0.00,,---,0.00,VWS V14.00,2013-02-04 01:55:00,
2013-02-03 19:00:00,47.8,12.8,25.31,WSW,256,4.0,4.0,24,0.00,,---,0.00,VWS V14.00,2013-02-04 02:00:00,
2013-02-03 19:05:00,47.7,12.7,25.31,WSW,256,0.0,0.0,24,0.00,,---,0.00,VWS V14.00,2013-02-04 02:05:00,
2013-02-03 19:10:00,48.4,13.3,25.31,WSW,256,0.0,0.0,24,0.00,,---,0.00,VWS V14.00,2013-02-04 02:10:00,
2013-02-03 19:15:00,48.6,13.4,25.31,WSW,256,3.1,4.0,24,0.00,,---,0.00,VWS V14.00,2013-02-04 02:15:00,
2013-02-03 19:20:00,48.6,13.4,25.31,WSW,256,0.0,0.0,24,0.00,,---,0.00,VWS V14.00,2013-02-04 02:20:00,
2013-02-03 19:25:00,48.7,13.6,25.31,WSW,256,0.0,0.0,24,0.00,,---,0.00,VWS V14.00,2013-02-04 02:25:00,
2013-02-03 19:30:00,48.7,13.6,25.31,WSW,256,0.0,0.0,24,0.00,,---,0.00,VWS V14.00,2013-02-04 02:30:00,
2013-02-03 19:35:00,48.7,13.6,25.31,WSW,256,0.0,0.0,24,0.00,,---,0.00,VWS V14.00,2013-02-04 02:35:00,
2013-02-03 19:40:00,48.7,13.6,25.31,WSW,256,0.0,0.0,24,0.00,,---,0.00,VWS V14.00,2013-02-04 02:40:00,
2013-02-03 19:45:00,48.6,13.4,25.31,WSW,256,0.0,0.0,24,0.00,,---,0.00,VWS V14.00,2013-02-04 02:45:00,
2013-02-03 19:50:00,48.7,13.6,25.31,WSW,256,0.0,0.0,24,0.00,,---,0.00,VWS V14.00,2013-02-04 02:50:00,
2013-02-03 19:55:00,48.2,13.1,25.31,WSW,256,0.0,0.0,24,0.00,,---,0.00,VWS V14.00,2013-02-04 02:55:00,
2013-02-03 20:00:00,47.8,15.5,25.31,WSW,256,0.0,0.0,27,0.00,,---,0.00,VWS V14.00,2013-02-04 03:00:00,
2013-02-03 20:05:00,48.0,15.6,25.31,WSW,255,0.0,0.0,27,0.00,,---,0.00,VWS V14.00,2013-02-04 03:05:00,
2013-02-03 20:10:00,48.4,15.1,25.31,WSW,255,0.0,0.0,26,0.00,,---,0.00,VWS V14.00,2013-02-04 03:10:00,
2013-02-03 20:15:00,48.6,15.2,25.31,WSW,255,0.0,2.2,26,0.00,,---,0.00,VWS V14.00,2013-02-04 03:15:00,
2013-02-03 20:20:00,48.6,15.2,25.31,WSW,255,0.0,0.0,26,0.00,,---,0.00,VWS V14.00,2013-02-04 03:20:00,
2013-02-03 20:25:00,48.9,13.7,25.31,WSW,255,0.0,0.0,24,0.00,,---,0.00,VWS V14.00,2013-02-04 03:25:00,
2013-02-03 20:30:00,49.3,14.0,25.31,WSW,255,3.1,4.0,24,0.00,,---,0.00,VWS V14.00,2013-02-04 03:30:00,
2013-02-03 20:35:00,48.9,13.7,25.31,WSW,255,3.6,3.6,24,0.00,,---,0.00,VWS V14.00,2013-02-04 03:35:00,
2013-02-03 20:40:00,48.6,13.4,25.31,WSW,255,2.7,2.7,24,0.00,,---,0.00,VWS V14.00,2013-02-04 03:40:00,
2013-02-03 20:45:00,48.7,13.6,25.31,WSW,255,2.7,3.6,24,0.00,,---,0.00,VWS V14.00,2013-02-04 03:45:00,
2013-02-03 20:50:00,49.6,14.3,25.31,WSW,255,0.0,3.1,24,0.00,,---,0.00,VWS V14.00,2013-02-04 03:50:00,
2013-02-03 20:55:00,50.2,14.8,25.31,WSW,255,0.0,0.0,24,0.00,,---,0.00,VWS V14.00,2013-02-04 03:55:00,
2013-02-03 21:00:00,50.4,14.9,25.31,WSW,255,0.0,0.0,24,0.00,,---,0.00,VWS V14.00,2013-02-04 04:00:00,
2013-02-03 21:05:00,50.2,14.8,25.31,WSW,255,2.7,3.1,24,0.00,,---,0.00,VWS V14.00,2013-02-04 04:05:00,
2013-02-03 21:10:00,49.5,14.2,25.31,WSW,255,4.0,5.4,24,0.00,,---,0.00,VWS V14.00,2013-02-04 04:10:00,
2013-02-03 21:15:00,49.6,14.3,25.31,West,262,4.9,6.3,24,0.00,,---,0.00,VWS V14.00,2013-02-04 04:15:00,
2013-02-03 21:20:00,50.5,15.1,25.31,West,262,4.0,4.0,24,0.00,,---,0.00,VWS V14.00,2013-02-04 04:20:00,
2013-02-03 21:25:00,51.6,16.0,25.31,West,262,5.4,5.4,24,0.00,,---,0.00,VWS V14.00,2013-02-04 04:25:00,
2013-02-03 21:31:00,52.9,16.1,25.31,WSW,256,3.6,4.9,23,0.00,,---,0.00,VWS V14.00,2013-02-04 04:31:00,
2013-02-03 21:36:00,53.8,13.7,25.31,West,262,3.6,4.9,20,0.00,,---,0.00,VWS V14.00,2013-02-04 04:36:00,
2013-02-03 21:41:00,54.1,14.0,25.31,West,262,3.1,3.6,20,0.00,,---,0.00,VWS V14.00,2013-02-04 04:41:00,
2013-02-03 21:46:00,54.1,14.0,25.31,WNW,297,5.8,5.8,20,0.00,,---,0.00,VWS V14.00,2013-02-04 04:46:00,
2013-02-03 21:51:00,53.8,13.7,25.31,WNW,296,5.8,5.8,20,0.00,,---,0.00,VWS V14.00,2013-02-04 04:51:00,
2013-02-03 21:56:00,53.4,14.5,25.31,West,272,8.7,8.7,21,0.00,,---,0.00,VWS V14.00,2013-02-04 04:56:00,
2013-02-03 22:00:00,54.0,13.8,25.31,West,275,8.1,11.0,20,0.00,,---,0.00,VWS V14.00,2013-02-04 05:00:00,
2013-02-03 22:02:00,54.3,14.1,25.31,West,267,8.7,8.7,20,0.00,,---,0.00,VWS V14.00,2013-02-04 05:02:00,
2013-02-03 22:03:00,54.5,14.3,25.31,West,271,8.1,8.1,20,0.00,,---,0.00,VWS V14.00,2013-02-04 05:03:00,
2013-02-03 22:04:00,54.5,14.3,25.31,West,277,6.3,8.3,20,0.00,,---,0.00,VWS V14.00,2013-02-04 05:04:00,
2013-02-03 22:09:00,54.7,14.4,25.31,West,274,5.8,6.3,20,0.00,,---,0.00,VWS V14.00,2013-02-04 05:09:00,
2013-02-03 22:14:00,54.5,14.3,25.31,West,266,0.0,0.0,20,0.00,,---,0.00,VWS V14.00,2013-02-04 05:14:00,
2013-02-03 22:19:00,54.0,13.8,25.31,SW,217,0.0,0.0,20,0.00,,---,0.00,VWS V14.00,2013-02-04 05:19:00,
2013-02-03 22:24:00,53.6,13.5,25.31,SW,217,0.0,0.0,20,0.00,,---,0.00,VWS V14.00,2013-02-04 05:24:00,
2013-02-03 22:29:00,53.4,14.5,25.31,SW,217,0.0,0.0,21,0.00,,---,0.00,VWS V14.00,2013-02-04 05:29:00,
2013-02-03 22:34:00,53.8,13.7,25.31,SW,217,0.0,0.0,20,0.00,,---,0.00,VWS V14.00,2013-02-04 05:34:00,
2013-02-03 22:39:00,53.8,13.7,25.31,SW,217,0.0,0.0,20,0.00,,---,0.00,VWS V14.00,2013-02-04 05:39:00,
2013-02-03 22:44:00,53.6,13.5,25.31,SW,217,0.0,0.0,20,0.00,,---,0.00,VWS V14.00,2013-02-04 05:44:00,
2013-02-03 22:49:00,53.2,14.3,25.31,SW,217,0.0,0.0,21,0.00,,---,0.00,VWS V14.00,2013-02-04 05:49:00,
2013-02-03 22:54:00,53.1,14.2,25.31,SW,225,3.6,3.6,21,0.00,,---,0.00,VWS V14.00,2013-02-04 05:54:00,
2013-02-03 22:59:00,53.1,14.2,25.31,WSW,252,4.9,5.4,21,0.00,,---,0.00,VWS V14.00,2013-02-04 05:59:00,
2013-02-03 23:04:00,53.6,13.5,25.31,WSW,237,4.0,5.4,20,0.00,,---,0.00,VWS V14.00,2013-02-04 06:04:00,
2013-02-03 23:09:00,53.6,13.5,25.31,WSW,243,5.8,8.1,20,0.00,,---,0.00,VWS V14.00,2013-02-04 06:09:00,
2013-02-03 23:14:00,53.8,13.7,25.31,WSW,246,8.1,8.1,20,0.00,,---,0.00,VWS V14.00,2013-02-04 06:14:00,
2013-02-03 23:19:00,53.8,13.7,25.31,SW,234,4.9,5.4,20,0.00,,---,0.00,VWS V14.00,2013-02-04 06:19:00,
2013-02-03 23:24:00,53.6,13.5,25.31,West,270,4.0,4.0,20,0.00,,---,0.00,VWS V14.00,2013-02-04 06:24:00,
2013-02-03 23:29:00,52.7,13.9,25.31,WNW,291,5.4,5.4,21,0.00,,---,0.00,VWS V14.00,2013-02-04 06:29:00,
2013-02-03 23:34:00,51.8,13.1,25.31,WNW,291,4.9,4.9,21,0.00,,---,0.00,VWS V14.00,2013-02-04 06:34:00,
2013-02-03 23:39:00,51.3,12.7,25.31,WNW,298,8.1,8.3,21,0.00,,---,0.00,VWS V14.00,2013-02-04 06:39:00,
2013-02-03 23:44:00,51.6,13.0,25.31,WNW,291,5.8,8.1,21,0.00,,---,0.00,VWS V14.00,2013-02-04 06:44:00,
2013-02-03 23:49:00,51.8,13.1,25.31,West,274,0.0,2.2,21,0.00,,---,0.00,VWS V14.00,2013-02-04 06:49:00,
2013-02-03 23:54:00,51.8,13.1,25.31,West,281,4.5,4.9,21,0.00,,---,0.00,VWS V14.00,2013-02-04 06:54:00,
2013-02-03 23:59:00,51.8,13.1,25.31,WNW,285,6.3,6.3,21,0.00,,---,0.00,VWS V14.00,2013-02-04 06:59:00,